{"data":{"norad_id":68963,"epoch":"2026-05-25T04:00:03.998880Z","epoch_age_seconds":60786,"freshness":"FRESH","line1":"1 68963U 26099N   26145.16671295 -.01888177  00000+0 -19430-1 0  9992","line2":"2 68963  53.1592 269.9959 0000696  71.3535 258.9042 15.67246952  5016","mean_motion":15.67246952,"eccentricity":6.96e-5,"inclination_deg":53.1592,"raan_deg":269.9959,"arg_perigee_deg":71.3535,"mean_anomaly_deg":258.9042,"bstar":-0.01943,"rev_number":501,"period_min":91.880861415132,"perigee_km":366.31483364347,"apogee_km":367.25372668567,"semimajor_km":6744.9212801646,"source":"CELESTRAK","updated_at":"2026-05-25T13:38:22.074296Z"}}